Regional Weather Roundup
Issued by NWS

Home | Current Version | Previous Version | Text Only | Print | Product List | Glossary On
Versions: 1 2 3 4 5 6 7 8 9 10 11 12 13 14 15 16 17 18 19 20 21 22 23 24 25 26 27 28 29 30 31 32 33 34 35 36 37 38 39 40 41 42 43 44 45 46 47 48 49 50
000
ASUS44 KFWD 282301
RWRTX
NORTH TEXAS HOURLY WEATHER ROUNDUP
NATIONAL WEATHER SERVICE FORT WORTH TX
500 PM CST SAT FEB 28 2015

NOTE: "FAIR" INDICATES FEW OR NO CLOUDS BELOW 12,000 FEET WITH NO
SIGNIFICANT WEATHER AND/OR OBSTRUCTIONS TO VISIBILITY.

TXZ118-119-010000-
DALLAS/FORT WORTH METROPLEX

CITY           SKY/WX    TMP DP  RH WIND       PRES   REMARKS
DFW AIRPORT    FRZ RAIN  31  28  89 NE6       30.31S FOG     WCI  25
DALLAS LOVE    FRZ RAIN  32  29  88 NE6       30.32S FOG     WCI  26
FTW MEACHAM    FRZ RAIN  32  28  85 N6        30.30S FOG     WCI  26
DAL-EXECUTIVE  FRZ RAIN  31  29  92 NE6       30.29F FOG     WCI  25
FTW-ALLIANCE   FRZ DRZL  30  28  92 NE6       30.30F FOG     WCI  24
ARLINGTON      CLOUDY    33  27  78 N6        30.31S WCI  28
GRAND PRAIRIE  CLOUDY    30  30 100 NE3       30.33S FOG
ADDISON        CLOUDY    30  28  93 NE5       30.32R FOG     WCI  25
MESQUITE       CLOUDY    32  30  93 N3        30.32R
LANCASTER      LGT RAIN  32  29  90 N5        30.32S WCI  27
$$

TXZ091>094-102>105-117-120-121-131>134-010000-
NORTH CENTRAL TEXAS

CITY           SKY/WX    TMP DP  RH WIND       PRES   REMARKS
SHRMAN/DENISON CLOUDY    31  31 100 NE5       30.32F FOG     WCI  26
BOWIE          CLOUDY    29  29  98 E3        30.28F FOG
BRIDGEPORT     DRIZZLE   30  30 100 NE5       30.32S WCI  25
DECATUR        CLOUDY    29  29  98 NE5       30.29S FOG     WCI  24
DENTON         FRZ RAIN  30  28  92 NE7       30.31S FOG     WCI  23
MCKINNEY       FRZ RAIN  31  28  89 NE7       30.32S FOG     WCI  24
TERRELL        LGT RAIN  35  31  85 N6        30.31R FOG     WCI  30
WAXAHACHIE     DRIZZLE   31  31 100 N6        30.31S WCI  26
GRANBURY       MIX PCPN  32  30  93 NE3       30.30F
$$

TXZ083>090-098>101-113>116-127>130-139>142-154-155-010000-
WESTERN NORTH TEXAS

CITY           SKY/WX    TMP DP  RH WIND       PRES   REMARKS
WICHITA FALLS  CLOUDY    28  25  88 E3        30.28F FOG
WF-KICKAPOO    CLOUDY    30  28  93 CALM      30.30S
VERNON         CLOUDY    27  22  82 NE3       30.29F
ABILENE        CLOUDY    28  26  92 SE7       30.22S FOG     WCI  21
GRAHAM         CLOUDY    30  29  95 CALM      30.26F
MINERAL WELLS  MIX PCPN  30  27  88 NE5       30.27F FOG     WCI  25
STEPHENVILLE   CLOUDY    30  28  93 CALM      30.28F
COMANCHE       CLOUDY    30  30 100 NE5       30.25F FOG     WCI  26
$$

TXZ143>147-156>162-174-175-010000-
CENTRAL TEXAS

CITY           SKY/WX    TMP DP  RH WIND       PRES   REMARKS
WACO           CLOUDY    33  31  92 N9        30.29S FOG     WCI  25
WACO-MCGREGOR    N/A     34  28  80 CALM      30.29S
CORSICANA      LGT RAIN  37  32  82 N7        30.30S WCI  32
HEARNE         CLOUDY    44  36  72 N7        30.27R
TEMPLE         CLOUDY    34  28  80 N12       30.26S WCI  25
KILLEEN        NOT AVBL
KILLEEN-SKYLRK CLOUDY    34  27  75 CALM      30.25S
FORT HOOD      CLOUDY    32  32 100 N8        30.25S FOG     WCI  25
HAMILTON       MIX PCPN  32  32 100 NE5       30.26S WCI  27
LAMPASAS       CLOUDY    32  31  96 NE5       30.24S FOG     WCI  27
$$

TXZ095>097-106>112-122>126-135>138-148>153-164>167-010000-
EAST TEXAS

CITY           SKY/WX    TMP DP  RH WIND       PRES   REMARKS
PARIS          CLOUDY    30  27  86 CALM      30.33S
SULPHUR SPRNGS CLOUDY    32  32  97 NE5       30.33S WCI  28
GILMER         CLOUDY    38  27  66 NE7       30.29F WCI  32
MINEOLA        CLOUDY    37  32  81 NE3       30.31R
TYLER          CLOUDY    41  27  57 NE5       30.28R WCI  38
LONGVIEW       CLOUDY    44  31  60 E10       30.26F WCI  39
ATHENS         CLOUDY    37  30  75 NE6       30.28S WCI  33
PALESTINE      CLOUDY    46  34  64 CALM      30.28S
JACKSONVILLE   CLOUDY    46  35  64 E3        30.28R
NACOGDOCHES    CLOUDY    50  34  53 E10       30.25F
LUFKIN         CLOUDY    53  37  54 E10       30.24F
$$

SUPPLEMENTAL OBSERVATIONS (CENTRAL)

CITY           SKY/WX    TMP DP  RH WIND       PRES   REMARKS
$$

SUPPLEMENTAL OBSERVATIONS (WEST)

CITY           SKY/WX    TMP DP  RH WIND       PRES   REMARKS
$$

SUPPLEMENTAL OBSERVATIONS (EAST)

CITY           SKY/WX    TMP DP  RH WIND       PRES   REMARKS
$$

SUPPLEMENTAL OBSERVATIONS ARE A COLLECTION OF AUTOMATED INSTRUMENTS
THAT ARE MAINTAINED BY A VARIETY OF FEDERAL AND STATE AGENCIES.
CERTAIN ELEMENTS...SUCH AS HUMIDITY VALUES AND SUSTAINED WIND
SPEEDS...MAY BE APPROXIMATED.



USA.gov is the U.S. government's official web portal to all federal, state and local government web resources and services.